Meteo Giornale » Osservazioni meteo Stati Uniti (USA) » Oceanside

ore: 18:52 - Osservazioni Meteo Oceanside
Lat. 33° 13' N Lon. 117° 21' W Alt. 9 metri s.l.m.

sereno

23 °C

Sereno

Temp. 24 Ore

19 °C

26 °C

Ovest/Sud-Ovest

11.1 Km/h

Dew point 18 °C

Umidità 73 %

Visibilità  13 Km

Il sole sorge alle ore 06:23

Il sole tramonta alle ore 19:15

Data e Ora Cielo e Fenomeni T °C DP °C Um. % Pres. hPa Vis. km Vento km/h
Oggi h: 18:52 sereno Sereno 23 18 73 1011 13 O/SO 11.1
Oggi h: 17:52 sereno Sereno 24 18 69 1012 13 O 13
Oggi h: 16:52 sereno Sereno 25 19 69 1012 13 O 16.7
Oggi h: 15:52 sereno Sereno 26 19 65 1012 13 O/SO 22.2
Oggi h: 13:52 sereno Sereno 26 19 65 1013 11 O 16.7
Oggi h: 12:52 sereno Sereno 26 19 65 1013 11 O 14.8
Oggi h: 11:52 sereno Sereno 26 19 65 1014 11 O 13
Oggi h: 10:52 sereno Sereno 26 19 65 1013 11 SO 13
Oggi h: 09:52 sereno Sereno 26 18 61 1013 11 S/SO 13
Oggi h: 09:17 nuvoloso Nuvoloso 24 18 69 1013 11 N 5.5
Oggi h: 08:52 molto_nuvoloso Molto Nuvoloso 23 18 73 1013 11 N 0
Oggi h: 08:24 nuvoloso Nuvoloso 23 18 73 1013 13 N 0
Oggi h: 07:52 coperto Coperto 22 18 78 1013 11 N 0
Oggi h: 06:52 coperto Coperto 21 19 88 1012 11 N 0
Oggi h: 05:52 coperto Coperto 21 19 88 1012 11 N 0
Oggi h: 04:52 coperto Coperto 20 18 88 1011 13 N 0
Oggi h: 03:52 coperto Coperto 19 18 93 1012 11 N 0
Oggi h: 02:52 molto_nuvoloso Molto Nuvoloso 19 18 93 1012 11 N 0
Oggi h: 01:52 molto_nuvoloso Molto Nuvoloso 19 18 93 1012 11 N 0
Oggi h: 00:52 coperto Coperto 19 17 88 1012 13 N 0
Ieri h: 23:52 molto_nuvoloso Molto Nuvoloso 19 18 93 1012 13 N 0
Ieri h: 22:52 poco_nuvoloso Poco Nuvoloso 20 18 88 1012 13 N 0
Ieri h: 21:52 sereno Sereno 21 19 88 1011 13 N 0
Ieri h: 20:52 sereno Sereno 23 19 78 1011 13 N 5.5
Ieri h: 19:52 poco_nuvoloso Poco Nuvoloso 23 20 83 1010 13 SO 9.3